Weather History for KSVH - June, 2013

Change the Weather History Date:

Friday, June 14, 2013

  Actual Average (KHKY) Record (KHKY)
Temperature  
Mean Temperature 68 °F -  
Max Temperature 79 °F 83 °F 95 °F (1958)
Min Temperature 56 °F 62 °F 52 °F (1968)
Cooling Degree Days 2    
Growing Degree Days 18 (Base 50)    
Moisture  
Dew Point 54 °F    
Average Humidity 59    
Maximum Humidity 92    
Minimum Humidity 36    
Precipitation  
Precipitation 0.00 in - - ()
Sea Level Pressure  
Sea Level Pressure 29.93 in    
Wind  
Wind Speed 6 mph (NNW)    
Max Wind Speed 16 mph    
Max Gust Speed 22 mph    
Visibility 10 miles    
Events      
Averages and records for this station are not official NWS values.
T = Trace of Precipitation, MM = Missing Value Source: NWS Daily Summary

Daily Weather History Graph

Daily Weather History Graph

Search for Another Location

Airport or City:

Trip Planner

Search our weather history database for the weather conditions in past years. The results will help you decide how hot, cold, wet, or windy it might be!

Date:

Astronomy

Jun. 14, 2013 Rise Set
Actual Time 6:07 AM EDT 8:41 PM EDT
Civil Twilight 5:37 AM EDT 9:11 PM EDT
Nautical Twilight 4:59 AM EDT 9:48 PM EDT
Astronomical Twilight 4:18 AM EDT 10:30 PM EDT
Moon 11:31 AM EDT (6/14) No Moon Set
Length of Visible Light 15h 34m
Length of Day
14h 34m
Waxing Crescent, 30% of the Moon is Illuminated
Jun 14
Waxing Crescent
Jun 16
First Quarter
Jun 23
Full
Jun 30
Last Quarter
Jul 8
New

Hourly Weather History & Observations

Time (EDT) Temp. Dew Point Humidity Pressure Visibility Wind Dir Wind Speed Gust Speed Precip Events Conditions
12:15 AM 70.0 °F 61.3 °F 74% 29.81 in 10.0 mi North 6.9 mph - N/A   Clear
12:35 AM 70.2 °F 60.8 °F 72% 29.82 in 10.0 mi NW 11.5 mph 16.1 mph N/A   Clear
12:55 AM 70.7 °F 59.9 °F 69% 29.84 in 10.0 mi NW 9.2 mph - N/A   Scattered Clouds
1:15 AM 69.8 °F 59.0 °F 68% 29.84 in 10.0 mi NW 8.1 mph - N/A   Scattered Clouds
1:35 AM 68.0 °F 58.1 °F 71% 29.85 in 10.0 mi WNW 5.8 mph - N/A   Scattered Clouds
1:55 AM 68.2 °F 56.3 °F 66% 29.85 in 10.0 mi NW 5.8 mph - N/A   Scattered Clouds
2:15 AM 68.2 °F 54.9 °F 62% 29.86 in 10.0 mi Calm Calm - N/A   Scattered Clouds
2:35 AM 66.4 °F 54.5 °F 66% 29.86 in 10.0 mi WNW 3.5 mph - N/A   Scattered Clouds
2:55 AM 62.6 °F 55.8 °F 78% 29.85 in 10.0 mi Calm Calm - N/A   Clear
3:15 AM 61.2 °F 55.9 °F 83% 29.85 in 10.0 mi West 3.5 mph - N/A   Clear
3:35 AM 60.4 °F 55.9 °F 85% 29.85 in 10.0 mi Calm Calm - N/A   Clear
3:55 AM 59.2 °F 55.9 °F 89% 29.85 in 10.0 mi West 3.5 mph - N/A   Clear
4:15 AM 58.8 °F 55.0 °F 87% 29.84 in 10.0 mi Calm Calm - N/A   Clear
4:35 AM 57.9 °F 55.4 °F 91% 29.85 in 10.0 mi Calm Calm - N/A   Clear
4:55 AM 62.6 °F 53.1 °F 71% 29.85 in 10.0 mi WNW 3.5 mph - N/A   Clear
5:15 AM 57.0 °F 54.5 °F 91% 29.84 in 10.0 mi Calm Calm - N/A   Clear
5:35 AM 56.7 °F 54.5 °F 92% 29.85 in 10.0 mi Calm Calm - N/A   Clear
5:55 AM 56.3 °F 54.1 °F 92% 29.86 in 10.0 mi WSW 4.6 mph - N/A   Clear
6:15 AM 59.0 °F 53.8 °F 83% 29.86 in 10.0 mi West 4.6 mph - N/A   Clear
6:35 AM 57.9 °F 54.0 °F 87% 29.87 in 10.0 mi Calm Calm - N/A   Clear
6:55 AM 58.8 °F 54.7 °F 86% 29.88 in 10.0 mi Calm Calm - N/A   Clear
7:15 AM 60.6 °F 55.8 °F 84% 29.88 in 10.0 mi West 6.9 mph - N/A   Clear
7:35 AM 63.5 °F 56.8 °F 79% 29.89 in 10.0 mi WNW 4.6 mph - N/A   Clear
7:55 AM 65.7 °F 56.8 °F 73% 29.90 in 10.0 mi West 3.5 mph - N/A   Clear
8:15 AM 66.7 °F 57.0 °F 71% 29.91 in 10.0 mi WNW 6.9 mph - N/A   Clear
8:35 AM 67.8 °F 57.6 °F 70% 29.91 in 10.0 mi WNW 5.8 mph - N/A   Clear
8:55 AM 68.9 °F 57.2 °F 66% 29.92 in 10.0 mi WNW 8.1 mph - N/A   Clear
9:15 AM 69.8 °F 57.6 °F 65% 29.92 in 10.0 mi WNW 9.2 mph - N/A   Clear
9:35 AM 71.2 °F 56.3 °F 59% 29.93 in 10.0 mi NW 9.2 mph - N/A   Clear
9:55 AM 72.0 °F 55.4 °F 56% 29.93 in 10.0 mi NW 11.5 mph 16.1 mph N/A   Clear
10:15 AM 72.7 °F 54.5 °F 53% 29.93 in 10.0 mi NW 11.5 mph 19.6 mph N/A   Clear
10:35 AM 73.4 °F 53.8 °F 50% 29.92 in 10.0 mi NNW 16.1 mph 19.6 mph N/A   Clear
10:55 AM 74.3 °F 54.5 °F 50% 29.93 in 10.0 mi NNW 10.4 mph 16.1 mph N/A   Clear
11:15 AM 74.5 °F 53.6 °F 48% 29.93 in 10.0 mi NNW 11.5 mph 20.7 mph N/A   Clear
11:35 AM 75.2 °F 54.0 °F 47% 29.94 in 10.0 mi NNW 16.1 mph 21.9 mph N/A   Clear
11:55 AM 75.4 °F 53.4 °F 46% 29.94 in 10.0 mi NNW 10.4 mph 16.1 mph N/A   Clear
12:15 PM 76.1 °F 52.3 °F 43% 29.94 in 10.0 mi NW 13.8 mph - N/A   Clear
12:35 PM 77.0 °F 52.9 °F 43% 29.94 in 10.0 mi NNW 10.4 mph 17.3 mph N/A   Clear
12:55 PM 77.2 °F 52.5 °F 42% 29.94 in 10.0 mi NW 9.2 mph 17.3 mph N/A   Clear
1:15 PM 77.9 °F 51.1 °F 39% 29.95 in 10.0 mi NNW 10.4 mph 17.3 mph N/A   Clear
1:35 PM 77.9 °F 48.9 °F 36% 29.96 in 10.0 mi NNW 11.5 mph - N/A   Clear
1:55 PM 78.3 °F 50.2 °F 37% 29.95 in 10.0 mi North 10.4 mph 19.6 mph N/A   Clear
2:15 PM 78.3 °F 50.4 °F 38% 29.95 in 10.0 mi NNW 9.2 mph 17.3 mph N/A   Clear
2:35 PM 78.1 °F 51.8 °F 40% 29.95 in 10.0 mi NW 10.4 mph 16.1 mph N/A   Scattered Clouds
2:55 PM 79.0 °F 52.5 °F 40% 29.95 in 10.0 mi North 12.7 mph 17.3 mph N/A   Clear
3:15 PM 78.8 °F 51.3 °F 38% 29.96 in 10.0 mi NNW 12.7 mph 18.4 mph N/A   Clear
3:35 PM 79.2 °F 51.6 °F 38% 29.95 in 10.0 mi North 11.5 mph 18.4 mph N/A   Clear
3:55 PM 79.3 °F 52.5 °F 39% 29.95 in 10.0 mi North 9.2 mph - N/A   Clear
4:15 PM 79.5 °F 51.3 °F 37% 29.95 in 10.0 mi North 10.4 mph 19.6 mph N/A   Scattered Clouds
4:35 PM 79.2 °F 50.9 °F 37% 29.95 in 10.0 mi North 10.4 mph 16.1 mph N/A   Scattered Clouds
4:55 PM 78.8 °F 51.6 °F 39% 29.95 in 10.0 mi NNW 6.9 mph - N/A   Clear
5:15 PM 78.4 °F 52.0 °F 40% 29.96 in 10.0 mi North 8.1 mph 17.3 mph N/A   Clear
5:35 PM 78.6 °F 51.1 °F 38% 29.96 in 10.0 mi North 9.2 mph - N/A   Clear
5:55 PM 78.3 °F 50.2 °F 37% 29.95 in 10.0 mi North 10.4 mph - N/A   Clear
6:15 PM 78.3 °F 52.0 °F 40% 29.96 in 10.0 mi North 5.8 mph - N/A   Clear
6:35 PM 77.9 °F 52.0 °F 40% 29.97 in 10.0 mi North 9.2 mph - N/A   Clear
6:55 PM 77.2 °F 51.6 °F 41% 29.98 in 10.0 mi North 5.8 mph - N/A   Clear
7:15 PM 77.0 °F 51.1 °F 40% 29.98 in 10.0 mi North 5.8 mph - N/A   Clear
7:35 PM 76.3 °F 53.2 °F 45% 29.98 in 10.0 mi North 4.6 mph - N/A   Clear
7:55 PM 75.6 °F 52.9 °F 45% 29.99 in 10.0 mi North 3.5 mph - N/A   Clear
8:15 PM 74.5 °F 52.5 °F 46% 29.99 in 10.0 mi North 5.8 mph - N/A   Clear
8:35 PM 73.4 °F 52.0 °F 47% 29.99 in 10.0 mi North 8.1 mph - N/A   Clear
8:55 PM 73.2 °F 51.4 °F 46% 29.99 in 10.0 mi North 8.1 mph - N/A   Clear
9:15 PM 72.7 °F 51.4 °F 47% 30.00 in 10.0 mi Calm Calm - N/A   Clear
9:35 PM 71.4 °F 52.7 °F 52% 30.01 in 10.0 mi North 4.6 mph - N/A   Clear
9:55 PM 68.0 °F 55.0 °F 63% 30.02 in 10.0 mi Calm Calm - N/A   Clear
10:15 PM 69.3 °F 53.6 °F 57% 30.02 in 10.0 mi North 3.5 mph - N/A   Clear
10:35 PM 68.4 °F 54.5 °F 61% 30.02 in 10.0 mi North 6.9 mph - N/A   Clear
10:55 PM 68.2 °F 53.8 °F 60% 30.04 in 10.0 mi NNW 5.8 mph - N/A   Clear
11:15 PM 64.9 °F 54.7 °F 69% 30.05 in 10.0 mi Calm Calm - N/A   Clear
11:35 PM 62.4 °F 54.7 °F 76% 30.05 in 10.0 mi Calm Calm - N/A   Clear
11:55 PM 61.0 °F 55.4 °F 82% 30.06 in 10.0 mi Calm Calm - N/A   Clear